Location: Trebic
(49.2170°N, 15.8830°E)
Time: 05:06:42
(UTC+02:00)

Courier 1B Rocket - Pass Details

Date: 23 August 2019
Orbit: 920 x 1202 km, 28.2° (Epoch: 18 September)

Event Time Altitude Azimuth Distance (km) Brightness Sun altitude
Rises 05:20:47 0° 228° (SW) 3,978 - -6.6°
Exits shadow 05:22:27 - 221° (SW) 3,576 7.4 -6.4°
Reaches altitude 10° 05:25:07 10° 205° (SSW) 3,066 7.1 -6.0°
Maximum altitude 05:28:48 14° 176° (S) 2,785 7.2 -5.4°
Drops below altitude 10° 05:32:32 10° 147° (SSE) 3,118 7.8 -4.9°
Sets 05:37:01 0° 124° (SE) 4,093 8.7 -4.2°
